Location: Wells
(51.2093°N, 2.6446°W)
Time: 17:22:05
(UTC+01:00)

Oscar 19 - Pass Details

Date: 22 March 2026
Orbit: 769 x 787 km, 98.9° (Epoch: 18 April)

Event Time Altitude Azimuth Distance (km) Brightness Sun altitude
Rises 19:30:18 0° 207° (SSW) 3,246 14.0 -10.6°
Reaches altitude 10° 19:33:16 10° 225° (SW) 2,321 13.5 -11.1°
Maximum altitude 19:36:51 19° 270° (W) 1,779 13.6 -11.6°
Drops below altitude 10° 19:40:27 10° 315° (NW) 2,327 14.1 -12.1°
Sets 19:43:27 0° 333° (NNW) 3,258 14.6 -12.6°
